Weather History for Chennai, India

Change the Weather History Date:

Saturday, September 14, 2013

  Actual Average Record
Temperature  
Mean Temperature 84 °F -  
Max Temperature 91 °F 88 °F 98 °F (1999)
Min Temperature 77 °F 76 °F 73 °F (2010)
Cooling Degree Days 19    
Growing Degree Days 34 (Base 50)    
Moisture  
Dew Point 76 °F    
Average Humidity 81    
Maximum Humidity 94    
Minimum Humidity 62    
Precipitation  
Precipitation 0.00 in 0.34 in - ()
Sea Level Pressure  
Sea Level Pressure 29.69 in    
Wind  
Wind Speed 3 mph ()    
Max Wind Speed 8 mph    
Max Gust Speed -    
Visibility 3.4 miles    
Events      
Averages and records for this station are not official NWS values.
T = Trace of Precipitation, MM = Missing Value Source: Averaged Metar Reports

Daily Weather History Graph

Daily Weather History Graph

Search for Another Location

Airport:

Trip Planner

Search our weather history database for the weather conditions in past years. The results will help you decide how hot, cold, wet, or windy it might be!

Date:

Astronomy

Sep. 14, 2013 Rise Set
Actual Time 5:58 AM IST 6:11 PM IST
Civil Twilight 5:37 AM IST 6:32 PM IST
Nautical Twilight 5:12 AM IST 6:57 PM IST
Astronomical Twilight 4:47 AM IST 7:21 PM IST
Moon 1:49 PM IST (9/14) 12:42 AM IST (9/14)
Length of Visible Light 12h 55m
Length of Day
12h 12m
Waxing Gibbous, 68% of the Moon is Illuminated
Sep 14
Waxing Gibbous
Sep 19
Full
Sep 27
Last Quarter
Oct 5
New
Oct 12
First Quarter

Hourly Weather History & Observations

Time (IST) Temp. Heat Index Dew Point Humidity Pressure Visibility Wind Dir Wind Speed Gust Speed Precip Events Conditions
12:40 AM 78.8 °F - 77.0 °F 94% 29.71 in 2.5 mi Variable 2.3 mph - N/A   Haze
1:10 AM 78.8 °F - 77.0 °F 94% 29.71 in 2.5 mi West 3.5 mph - N/A   Haze
1:40 AM 78.8 °F - 77.0 °F 94% 29.68 in 2.5 mi Variable 2.3 mph - N/A   Haze
2:10 AM 78.8 °F - 77.0 °F 94% 29.68 in 2.5 mi Variable 2.3 mph - N/A   Haze
2:30 AM 79 °F - 77 °F 91% 29.71 in 2 mi Calm Calm - -   Scattered Clouds
2:40 AM 78.8 °F - 77.0 °F 94% 29.68 in 2.5 mi Variable 2.3 mph - N/A   Haze
3:10 AM 78.8 °F - 77.0 °F 94% 29.65 in 2.5 mi WNW 2.3 mph - N/A   Light Drizzle
3:40 AM 78.8 °F - 77.0 °F 94% 29.68 in 2.5 mi WSW 3.5 mph - N/A   Light Drizzle
4:10 AM 78.8 °F - 77.0 °F 94% 29.68 in 2.5 mi West 2.3 mph - N/A   Light Drizzle
4:40 AM 78.8 °F - 77.0 °F 94% 29.68 in 2.5 mi West 4.6 mph - N/A   Light Drizzle
5:10 AM 78.8 °F - 77.0 °F 94% 29.71 in 2.5 mi West 4.6 mph - N/A   Haze
5:30 AM 78 °F - 76 °F 93% 29.73 in 2 mi Calm Calm - -   Partly Cloudy
5:40 AM 78.8 °F - 77.0 °F 94% 29.71 in 2.5 mi West 5.8 mph - N/A   Haze
6:10 AM 77.0 °F - 75.2 °F 94% 29.71 in 2.5 mi WSW 4.6 mph - N/A   Haze
7:10 AM 78.8 °F - 75.2 °F 89% 29.74 in 3.1 mi WNW 4.6 mph - N/A   Light Drizzle
7:40 AM 78.8 °F - 75.2 °F 89% 29.74 in 3.1 mi NW 3.5 mph - N/A   Haze
8:10 AM 80.6 °F 87.1 °F 77.0 °F 89% 29.74 in 3.1 mi WNW 3.5 mph - N/A   Haze
8:40 AM 82.4 °F 90.9 °F 77.0 °F 84% 29.74 in 3.1 mi NW 3.5 mph - N/A   Haze
9:10 AM 84.2 °F 94.1 °F 77.0 °F 79% 29.74 in 3.1 mi NW 3.5 mph - N/A   Haze
9:40 AM 84.2 °F 94.1 °F 77.0 °F 79% 29.74 in 3.1 mi WNW 4.6 mph - N/A   Haze
10:10 AM 86.0 °F 96.9 °F 77.0 °F 74% 29.74 in 3.7 mi NNW 8.1 mph - N/A   Mostly Cloudy
10:40 AM 87.8 °F 99.7 °F 77.0 °F 70% 29.74 in 3.7 mi North 5.8 mph - N/A   Mostly Cloudy
11:10 AM 87.8 °F 102.5 °F 78.8 °F 75% 29.71 in 3.7 mi NNE 4.6 mph - N/A   Mostly Cloudy
11:30 AM 89 °F - 78 °F 62% 29.76 in 6 mi Calm Calm - -   Mostly Cloudy
11:40 AM 87.8 °F 99.7 °F 77.0 °F 70% 29.71 in 3.7 mi North 4.6 mph - N/A   Mostly Cloudy
12:10 PM 87.8 °F 99.7 °F 77.0 °F 70% 29.71 in 3.7 mi North 3.5 mph - N/A   Mostly Cloudy
12:40 PM 87.8 °F 99.7 °F 77.0 °F 70% 29.68 in 3.7 mi NE 3.5 mph - N/A   Mostly Cloudy
1:10 PM 89.6 °F 99.8 °F 75.2 °F 62% 29.65 in 3.7 mi Calm Calm - N/A   Mostly Cloudy
1:40 PM 87.8 °F 99.7 °F 77.0 °F 70% 29.65 in 3.7 mi North 5.8 mph - N/A   Mostly Cloudy
2:10 PM 87.8 °F 99.7 °F 77.0 °F 70% 29.62 in 3.7 mi SE 8.1 mph - N/A   Mostly Cloudy
2:30 PM 88 °F - 78 °F 64% 29.66 in 6 mi East 6.9 mph - -   Overcast
2:40 PM 87.8 °F 97.6 °F 75.2 °F 66% 29.62 in 3.7 mi ESE 8.1 mph - N/A   Mostly Cloudy
3:10 PM 87.8 °F 97.6 °F 75.2 °F 66% 29.62 in 3.7 mi East 6.9 mph - N/A   Mostly Cloudy
3:40 PM 87.8 °F 95.6 °F 73.4 °F 62% 29.59 in 3.7 mi East 4.6 mph - N/A   Scattered Clouds
4:10 PM 86.0 °F 95.1 °F 75.2 °F 70% 29.59 in 4.3 mi ESE 4.6 mph - N/A   Partly Cloudy
4:40 PM 86.0 °F 95.1 °F 75.2 °F 70% 29.59 in 4.3 mi SSE 4.6 mph - N/A   Partly Cloudy
5:10 PM 84.2 °F 94.1 °F 77.0 °F 79% 29.62 in 3.7 mi ESE 5.8 mph - N/A   Partly Cloudy
5:30 PM 85 °F - 78 °F 73% 29.65 in 6 mi South 2.3 mph - -   Scattered Clouds
5:40 PM 84.2 °F 92.3 °F 75.2 °F 74% 29.62 in 3.7 mi South 4.6 mph - N/A   Partly Cloudy
6:10 PM 82.4 °F 89.5 °F 75.2 °F 79% 29.62 in 3.7 mi South 3.5 mph - N/A   Partly Cloudy
6:40 PM 82.4 °F 89.5 °F 75.2 °F 79% 29.65 in 3.7 mi SSE 3.5 mph - N/A   Partly Cloudy
7:10 PM 82.4 °F 88.2 °F 73.4 °F 74% 29.65 in 3.7 mi Calm Calm - N/A   Partly Cloudy
7:40 PM 82.4 °F 89.5 °F 75.2 °F 79% 29.65 in 3.7 mi Calm Calm - N/A   Partly Cloudy
8:10 PM 82.4 °F 89.5 °F 75.2 °F 79% 29.68 in 3.7 mi Calm Calm - N/A   Partly Cloudy
8:30 PM 81 °F - 76 °F 82% 29.73 in 2 mi Calm Calm - -   Scattered Clouds
8:40 PM 82.4 °F 89.5 °F 75.2 °F 79% 29.71 in 3.7 mi Calm Calm - N/A   Partly Cloudy
9:10 PM 82.4 °F 89.5 °F 75.2 °F 79% 29.71 in 3.7 mi North 3.5 mph - N/A   Partly Cloudy
9:40 PM 82.4 °F 89.5 °F 75.2 °F 79% 29.71 in 3.7 mi NNW 5.8 mph - N/A   Partly Cloudy
10:10 PM 82.4 °F 89.5 °F 75.2 °F 79% 29.71 in 3.7 mi North 3.5 mph - N/A   Partly Cloudy
10:40 PM 80.6 °F 86.2 °F 75.2 °F 84% 29.71 in 3.7 mi North 3.5 mph - N/A   Partly Cloudy
11:10 PM 80.6 °F 86.2 °F 75.2 °F 84% 29.71 in 3.7 mi Calm Calm - N/A   Partly Cloudy
11:30 PM 79 °F - 77 °F 90% 29.73 in 2 mi Calm Calm - -   Scattered Clouds
11:40 PM 80.6 °F 87.1 °F 77.0 °F 89% 29.68 in 3.7 mi North 5.8 mph - N/A   Partly Cloudy